Time,TemperatureF,DewpointF,PressureIn,WindDirection,WindDirectionDegrees,WindSpeedMPH,WindSpeedGustMPH,Humidity,HourlyPrecipIn,Conditions,Clouds,dailyrainin,SoftwareType,DateUTC
2013-04-18 00:00:00,40.3,27.5,30.25,North,0,0.0,2.0,60,0.00,,,0.02,Wunderground v.1.13,2013-04-18 04:00:00,
2013-04-18 00:30:00,40.3,27.5,30.25,North,0,0.0,2.0,60,0.00,,,0.02,Wunderground v.1.13,2013-04-18 04:30:00,
2013-04-18 01:00:00,41.2,27.9,30.26,North,0,0.0,1.0,59,0.00,,,0.02,Wunderground v.1.13,2013-04-18 05:00:00,
2013-04-18 01:30:00,41.1,29.1,30.23,North,0,0.0,2.0,62,0.00,,,0.02,Wunderground v.1.13,2013-04-18 05:30:00,
2013-04-18 02:00:00,41.5,27.4,30.24,N/A,-737280,0.0,0.0,57,0.00,,,0.02,Wunderground v.1.13,2013-04-18 06:00:00,
2013-04-18 02:30:00,41.6,29.5,30.24,North,0,1.0,5.0,62,0.00,,,0.02,Wunderground v.1.13,2013-04-18 06:30:00,
2013-04-18 03:00:00,41.9,29.4,30.24,NNE,23,2.0,7.0,61,0.00,,,0.02,Wunderground v.1.13,2013-04-18 07:00:00,
2013-04-18 03:30:00,42.8,28.2,30.24,NE,45,4.0,13.0,56,0.00,,,0.02,Wunderground v.1.13,2013-04-18 07:30:00,
2013-04-18 04:00:00,43.1,25.7,30.23,NNE,23,3.0,10.0,50,0.00,,,0.02,Wunderground v.1.13,2013-04-18 08:00:00,
2013-04-18 04:30:00,42.6,24.8,30.20,NE,45,2.0,11.0,49,0.00,,,0.02,Wunderground v.1.13,2013-04-18 08:30:00,
2013-04-18 05:00:00,42.3,24.0,30.21,NNE,23,2.0,11.0,48,0.00,,,0.02,Wunderground v.1.13,2013-04-18 09:00:00,
2013-04-18 05:30:00,42.1,24.8,30.18,NE,45,1.0,7.0,50,0.00,,,0.02,Wunderground v.1.13,2013-04-18 09:30:00,
2013-04-18 06:00:00,41.6,25.3,30.17,ENE,68,1.0,7.0,52,0.00,,,0.02,Wunderground v.1.13,2013-04-18 10:00:00,
2013-04-18 06:30:00,41.2,28.4,30.18,NE,45,2.0,9.0,60,0.00,,,0.02,Wunderground v.1.13,2013-04-18 10:30:00,
2013-04-18 07:00:00,41.2,28.4,30.16,NE,45,3.0,10.0,60,0.00,,,0.02,Wunderground v.1.13,2013-04-18 11:00:00,
2013-04-18 07:30:00,41.9,30.6,30.14,NE,45,2.0,12.0,64,0.00,,,0.02,Wunderground v.1.13,2013-04-18 11:30:00,
2013-04-18 08:00:00,41.2,32.5,30.13,NE,45,2.0,6.0,71,0.00,,,0.02,Wunderground v.1.13,2013-04-18 12:00:00,
2013-04-18 08:30:00,41.6,32.9,30.11,NE,45,2.0,7.0,71,0.00,,,0.02,Wunderground v.1.13,2013-04-18 12:30:00,
2013-04-18 09:00:00,41.3,35.0,30.08,NNE,23,1.0,7.0,78,0.02,,,0.02,Wunderground v.1.13,2013-04-18 13:00:00,
2013-04-18 09:30:00,42.2,37.4,30.08,NE,45,1.0,5.0,83,0.02,,,0.02,Wunderground v.1.13,2013-04-18 13:30:00,
2013-04-18 10:00:00,42.9,37.2,30.07,NE,45,1.0,7.0,80,0.00,,,0.02,Wunderground v.1.13,2013-04-18 14:00:00,
2013-04-18 10:30:00,43.3,36.9,30.06,NE,45,1.0,6.0,78,0.00,,,0.02,Wunderground v.1.13,2013-04-18 14:30:00,
2013-04-18 11:00:00,44.2,37.8,30.04,ENE,68,2.0,5.0,78,0.00,,,0.02,Wunderground v.1.13,2013-04-18 15:00:00,
2013-04-18 11:30:00,47.7,40.5,29.98,ENE,68,2.0,7.0,76,0.00,,,0.02,Wunderground v.1.13,2013-04-18 15:30:00,
2013-04-18 12:00:00,51.3,42.2,29.95,NNE,23,2.0,10.0,71,0.00,,,0.02,Wunderground v.1.13,2013-04-18 16:00:00,
2013-04-18 12:30:00,52.2,41.6,29.92,ENE,68,3.0,12.0,67,0.00,,,0.02,Wunderground v.1.13,2013-04-18 16:30:00,
2013-04-18 13:00:00,54.1,43.4,29.90,NNE,23,3.0,11.0,67,0.00,,,0.02,Wunderground v.1.13,2013-04-18 17:00:00,
2013-04-18 13:30:00,54.7,43.2,29.86,NNE,23,5.0,12.0,65,0.00,,,0.02,Wunderground v.1.13,2013-04-18 17:30:00,
2013-04-18 14:00:00,56.2,43.8,29.83,NNE,23,5.0,14.0,63,0.00,,,0.02,Wunderground v.1.13,2013-04-18 18:00:00,
2013-04-18 14:30:00,59.9,44.6,29.80,NNE,23,3.0,12.0,57,0.00,,,0.02,Wunderground v.1.13,2013-04-18 18:30:00,
2013-04-18 15:00:00,70.8,47.2,29.77,SSW,203,4.0,15.0,43,0.00,,,0.02,Wunderground v.1.13,2013-04-18 19:00:00,
2013-04-18 15:30:00,73.2,46.8,29.75,SSW,203,9.0,28.0,39,0.00,,,0.02,Wunderground v.1.13,2013-04-18 19:30:00,
2013-04-18 16:00:00,72.1,47.1,29.74,SSW,203,8.0,19.0,41,0.00,,,0.02,Wunderground v.1.13,2013-04-18 20:00:00,
2013-04-18 16:30:00,72.0,47.0,29.73,South,180,9.0,25.0,41,0.00,,,0.02,Wunderground v.1.13,2013-04-18 20:30:00,
2013-04-18 17:00:00,71.1,46.2,29.72,South,180,11.0,30.0,41,0.00,,,0.02,Wunderground v.1.13,2013-04-18 21:00:00,
2013-04-18 17:30:00,70.3,46.7,29.71,South,180,12.0,26.0,43,0.00,,,0.02,Wunderground v.1.13,2013-04-18 21:30:00,
2013-04-18 18:00:00,69.1,46.9,29.70,South,180,11.0,24.0,45,0.00,,,0.02,Wunderground v.1.13,2013-04-18 22:00:00,
2013-04-18 18:30:00,67.8,46.3,29.66,South,180,12.0,34.0,46,0.00,,,0.02,Wunderground v.1.13,2013-04-18 22:30:00,
2013-04-18 19:00:00,66.6,46.8,29.68,South,180,10.0,27.0,49,0.00,,,0.02,Wunderground v.1.13,2013-04-18 23:00:00,
2013-04-18 19:30:00,66.3,47.6,29.67,SSW,203,10.0,24.0,51,0.00,,,0.02,Wunderground v.1.13,2013-04-18 23:30:00,
2013-04-18 20:00:00,66.1,49.0,29.67,South,180,10.0,25.0,54,0.00,,,0.02,Wunderground v.1.13,2013-04-19 00:00:00,
2013-04-18 21:00:00,66.3,50.6,29.67,South,180,10.0,25.0,57,0.00,,,0.02,Wunderground v.1.13,2013-04-19 01:00:00,
2013-04-18 21:30:00,65.8,51.1,29.65,South,180,10.0,22.0,59,0.00,,,0.02,Wunderground v.1.13,2013-04-19 01:30:00,
2013-04-18 22:00:00,66.0,51.3,29.65,SSW,203,10.0,28.0,59,0.00,,,0.02,Wunderground v.1.13,2013-04-19 02:00:00,
2013-04-18 22:30:00,65.3,51.5,29.64,SSW,203,9.0,26.0,61,0.00,,,0.02,Wunderground v.1.13,2013-04-19 02:30:00,
2013-04-18 23:00:00,65.2,51.4,29.64,SSW,203,9.0,21.0,61,0.00,,,0.02,Wunderground v.1.13,2013-04-19 03:00:00,
2013-04-18 23:30:00,64.8,51.9,29.67,SW,225,6.0,16.0,63,0.00,,,0.02,Wunderground v.1.13,2013-04-19 03:30:00,